EN

Hourly Weather Alvares Machado

Today, 24 January, Sunday

Time Temperature Precipitation Wind Pressure Humidity
00:00 +24°C° 0.6 mm 3 mps 721 mmHg 89%
01:00 +24°C° 0.3 mm 3 mps 720 mmHg 90%
02:00 +22°C° 0.3 mm 3 mps 720 mmHg 90%
03:00 +22°C° 0.3 mm 3 mps 719 mmHg 91%
04:00 +23°C° 0 mm 2 mps 719 mmHg 90%
05:00 +23°C° 0 mm 2 mps 719 mmHg 89%
06:00 +21°C° 0 mm 2 mps 719 mmHg 89%
07:00 +23°C° 0 mm 2 mps 720 mmHg 86%
08:00 +24°C° 0 mm 3 mps 720 mmHg 83%
09:00 +25°C° 0 mm 4 mps 721 mmHg 80%
10:00 +27°C° 0.4 mm 4 mps 721 mmHg 76%
11:00 +28°C° 0.4 mm 3 mps 720 mmHg 73%
12:00 +29°C° 0.4 mm 3 mps 720 mmHg 69%
13:00 +29°C° 0.6 mm 3 mps 720 mmHg 67%
14:00 +30°C° 0.6 mm 3 mps 719 mmHg 65%
15:00 +30°C° 0.6 mm 2 mps 719 mmHg 63%
16:00 +29°C° 0.6 mm 2 mps 718 mmHg 69%
17:00 +28°C° 0.6 mm 2 mps 718 mmHg 74%
18:00 +28°C° 0.6 mm 2 mps 718 mmHg 80%
19:00 +27°C° 0 mm 3 mps 718 mmHg 83%
20:00 +26°C° 0 mm 3 mps 718 mmHg 86%
21:00 +25°C° 0 mm 3 mps 718 mmHg 88%
22:00 +24°C° 0.1 mm 3 mps 718 mmHg 89%
23:00 +24°C° 0.1 mm 3 mps 718 mmHg 90%

Tomorrow, 25 January, Monday

Time Temperature Precipitation Wind Pressure Humidity
00:00 +22°C° 0.1 mm 3 mps 718 mmHg 91%
01:00 +22°C° 0.1 mm 3 mps 718 mmHg 91%
02:00 +22°C° 0.1 mm 3 mps 718 mmHg 91%
03:00 +22°C° 0.1 mm 3 mps 717 mmHg 91%
04:00 +21°C° 0 mm 3 mps 718 mmHg 89%
05:00 +21°C° 0 mm 3 mps 718 mmHg 88%
06:00 +21°C° 0 mm 3 mps 718 mmHg 86%
07:00 +23°C° 0 mm 4 mps 718 mmHg 82%
08:00 +25°C° 0 mm 4 mps 719 mmHg 78%
09:00 +27°C° 0 mm 4 mps 719 mmHg 74%
10:00 +28°C° 0 mm 4 mps 720 mmHg 69%
11:00 +30°C° 0 mm 4 mps 720 mmHg 64%
12:00 +32°C° 0 mm 4 mps 720 mmHg 59%
13:00 +32°C° 0.4 mm 4 mps 719 mmHg 58%
14:00 +33°C° 0.4 mm 4 mps 718 mmHg 57%
15:00 +33°C° 0.4 mm 3 mps 717 mmHg 56%
16:00 +31°C° 0.5 mm 2 mps 717 mmHg 61%
17:00 +31°C° 0.5 mm 2 mps 717 mmHg 67%
18:00 +30°C° 0.5 mm 1 mps 716 mmHg 72%
19:00 +29°C° 0.7 mm 1 mps 717 mmHg 75%
20:00 +27°C° 0.7 mm 1 mps 717 mmHg 78%
21:00 +26°C° 0.7 mm 1 mps 718 mmHg 82%
22:00 +25°C° 0.1 mm 1 mps 718 mmHg 82%
23:00 +25°C° 0.1 mm 1 mps 718 mmHg 82%

Day after tomorrow, 26 January, Tuesday

Time Temperature Precipitation Wind Pressure Humidity
00:00 +25°C° 0.1 mm 1 mps 718 mmHg 82%
01:00 +25°C° 0 mm 1 mps 718 mmHg 83%
02:00 +24°C° 0 mm 2 mps 717 mmHg 84%
03:00 +24°C° 0 mm 2 mps 717 mmHg 86%
04:00 +23°C° 0 mm 2 mps 717 mmHg 85%
05:00 +23°C° 0 mm 2 mps 717 mmHg 85%
06:00 +23°C° 0 mm 2 mps 718 mmHg 84%
07:00 +24°C° 0 mm 3 mps 718 mmHg 82%
08:00 +25°C° 0 mm 3 mps 719 mmHg 79%
09:00 +26°C° 0 mm 3 mps 719 mmHg 77%
10:00 +28°C° 0 mm 3 mps 719 mmHg 71%
11:00 +30°C° 0 mm 4 mps 719 mmHg 66%
12:00 +33°C° 0 mm 4 mps 719 mmHg 60%
13:00 +33°C° 0.5 mm 4 mps 719 mmHg 58%
14:00 +33°C° 0.5 mm 4 mps 718 mmHg 57%
15:00 +34°C° 0.5 mm 4 mps 718 mmHg 55%
16:00 +33°C° 0.7 mm 4 mps 718 mmHg 62%
17:00 +30°C° 0.7 mm 3 mps 717 mmHg 69%
18:00 +29°C° 0.7 mm 2 mps 717 mmHg 76%
19:00 +28°C° 0.1 mm 2 mps 717 mmHg 78%
20:00 +27°C° 0.1 mm 2 mps 717 mmHg 79%
21:00 +26°C° 0.1 mm 1 mps 718 mmHg 81%
22:00 +26°C° 0.1 mm 1 mps 718 mmHg 82%
23:00 +25°C° 0.1 mm 2 mps 718 mmHg 82%

27 January, Wednesday

Time Temperature Precipitation Wind Pressure Humidity
00:00 +25°C° 0.1 mm 2 mps 718 mmHg 83%
01:00 +25°C° 0.1 mm 1 mps 717 mmHg 85%
02:00 +24°C° 0.1 mm 1 mps 717 mmHg 86%
03:00 +24°C° 0.1 mm 1 mps 717 mmHg 87%
04:00 +24°C° 0 mm 2 mps 717 mmHg 88%
05:00 +24°C° 0 mm 2 mps 717 mmHg 89%
06:00 +23°C° 0 mm 2 mps 718 mmHg 89%
07:00 +25°C° 0 mm 2 mps 718 mmHg 85%
08:00 +26°C° 0 mm 3 mps 719 mmHg 80%
09:00 +28°C° 0 mm 3 mps 719 mmHg 75%
10:00 +29°C° 0.4 mm 3 mps 719 mmHg 71%
11:00 +30°C° 0.4 mm 4 mps 719 mmHg 67%
12:00 +33°C° 0.4 mm 4 mps 719 mmHg 62%
13:00 +33°C° 1.6 mm 4 mps 718 mmHg 62%
14:00 +33°C° 1.6 mm 3 mps 718 mmHg 62%
15:00 +33°C° 1.6 mm 3 mps 718 mmHg 62%
16:00 +31°C° 0.1 mm 3 mps 717 mmHg 65%
17:00 +30°C° 0.1 mm 3 mps 717 mmHg 68%
18:00 +30°C° 0.1 mm 3 mps 717 mmHg 71%
19:00 +29°C° 0 mm 2 mps 717 mmHg 74%
20:00 +27°C° 0 mm 2 mps 717 mmHg 76%
21:00 +26°C° 0 mm 1 mps 717 mmHg 78%
22:00 +26°C° 0 mm 1 mps 717 mmHg 78%
23:00 +26°C° 0 mm 1 mps 717 mmHg 77%

28 January, Thursday

Time Temperature Precipitation Wind Pressure Humidity
00:00 +26°C° 0 mm 1 mps 717 mmHg 77%
01:00 +25°C° 0 mm 2 mps 717 mmHg 81%
02:00 +25°C° 0 mm 2 mps 717 mmHg 84%
03:00 +24°C° 0 mm 2 mps 716 mmHg 88%
04:00 +24°C° 0 mm 2 mps 717 mmHg 89%
05:00 +24°C° 0 mm 2 mps 717 mmHg 91%
06:00 +23°C° 0 mm 1 mps 717 mmHg 92%
07:00 +24°C° 0.7 mm 2 mps 718 mmHg 89%
08:00 +26°C° 0.7 mm 2 mps 718 mmHg 85%
09:00 +27°C° 0.7 mm 3 mps 719 mmHg 82%
10:00 +28°C° 1.6 mm 3 mps 718 mmHg 78%
11:00 +29°C° 1.6 mm 3 mps 718 mmHg 74%
12:00 +30°C° 1.6 mm 3 mps 718 mmHg 70%
13:00 +30°C° 0.6 mm 3 mps 717 mmHg 67%
14:00 +31°C° 0.6 mm 2 mps 717 mmHg 64%
15:00 +31°C° 0.6 mm 1 mps 716 mmHg 61%

29 January, Friday

Time Temperature Precipitation Wind Pressure Humidity
Show more